{"data":{"norad_id":68014,"epoch":"2026-09-20T01:32:10.209120Z","epoch_age_seconds":97176,"freshness":"FRESH","line1":"1 68014U 26039AE  26263.06400705  .00018560  00000+0  68210-3 0  9999","line2":"2 68014  43.0007  30.9100 0001507 275.7464  84.3216 15.27588764 31434","mean_motion":15.27588764,"eccentricity":0.0001507,"inclination_deg":43.0007,"raan_deg":30.91,"arg_perigee_deg":275.7464,"mean_anomaly_deg":84.3216,"bstar":0.0006821,"rev_number":3143,"period_min":94.266207891537,"perigee_km":481.98887680635,"apogee_km":484.05683038622,"semimajor_km":6861.1598535963,"source":"CELESTRAK","updated_at":"2026-09-20T09:00:43.740875Z"}}